Time,TemperatureF,DewpointF,PressureIn,WindDirection,WindDirectionDegrees,WindSpeedMPH,WindSpeedGustMPH,Humidity,HourlyPrecipIn,Conditions,Clouds,dailyrainin,SolarRadiationWatts/m^2,SoftwareType,DateUTC
2013-02-27 00:01:00,41.0,38.0,-100.00,South,175,3.0,4.0,88,0.00,,,0.00,0.000000,,2013-02-27 08:01:00,
2013-02-27 00:11:00,41.0,38.0,-100.00,South,175,3.0,4.0,88,0.00,,,0.00,0.000000,,2013-02-27 08:11:00,
2013-02-27 00:32:00,40.0,37.0,-100.00,SSE,151,2.0,4.0,89,0.00,,,0.00,0.000000,,2013-02-27 08:32:00,
2013-02-27 00:42:00,40.0,37.0,-100.00,SSE,151,2.0,4.0,89,0.00,,,0.00,0.000000,,2013-02-27 08:42:00,
2013-02-27 00:52:00,40.0,37.0,-100.00,SSE,151,2.0,4.0,89,0.00,,,0.00,0.000000,,2013-02-27 08:52:00,
2013-02-27 01:01:00,40.0,37.0,-100.00,SSE,151,2.0,4.0,89,0.00,,,0.00,0.000000,,2013-02-27 09:01:00,
2013-02-27 01:11:00,40.0,37.0,-100.00,SSE,151,2.0,4.0,89,0.00,,,0.00,0.000000,,2013-02-27 09:11:00,
2013-02-27 01:32:00,40.0,37.0,-100.00,SE,140,2.0,4.0,89,0.00,,,0.00,0.000000,,2013-02-27 09:32:00,
2013-02-27 01:42:00,40.0,37.0,-100.00,SE,140,2.0,4.0,89,0.00,,,0.00,0.000000,,2013-02-27 09:42:00,
2013-02-27 01:52:00,40.0,37.0,-100.00,SE,140,2.0,4.0,89,0.00,,,0.00,0.000000,,2013-02-27 09:52:00,
2013-02-27 02:01:00,40.0,37.0,-100.00,SE,140,2.0,4.0,89,0.00,,,0.00,0.000000,,2013-02-27 10:01:00,
2013-02-27 02:12:00,40.0,37.0,-100.00,SE,140,2.0,4.0,89,0.00,,,0.00,0.000000,,2013-02-27 10:12:00,
2013-02-27 02:32:00,41.0,37.0,-100.00,South,173,2.0,4.0,86,0.00,,,0.00,0.000000,,2013-02-27 10:32:00,
2013-02-27 02:42:00,41.0,37.0,-100.00,South,173,2.0,4.0,86,0.00,,,0.00,0.000000,,2013-02-27 10:42:00,
2013-02-27 02:52:00,41.0,37.0,-100.00,South,173,2.0,4.0,86,0.00,,,0.00,0.000000,,2013-02-27 10:52:00,
2013-02-27 03:01:00,41.0,37.0,-100.00,South,173,2.0,4.0,86,0.00,,,0.00,0.000000,,2013-02-27 11:01:00,
2013-02-27 03:11:00,41.0,37.0,-100.00,South,173,2.0,4.0,86,0.00,,,0.00,0.000000,,2013-02-27 11:11:00,
2013-02-27 03:32:00,41.0,37.0,-100.00,South,176,2.0,3.0,85,0.00,,,0.00,0.000000,,2013-02-27 11:32:00,
2013-02-27 03:42:00,41.0,37.0,-100.00,South,176,2.0,3.0,85,0.00,,,0.00,0.000000,,2013-02-27 11:42:00,
2013-02-27 03:52:00,41.0,37.0,-100.00,South,176,2.0,3.0,85,0.00,,,0.00,0.000000,,2013-02-27 11:52:00,
2013-02-27 04:01:00,41.0,37.0,-100.00,South,176,2.0,3.0,85,0.00,,,0.00,0.000000,,2013-02-27 12:01:00,
2013-02-27 04:12:00,41.0,37.0,-100.00,South,176,2.0,3.0,85,0.00,,,0.00,0.000000,,2013-02-27 12:12:00,
2013-02-27 04:33:00,42.0,37.0,-100.00,South,186,3.0,4.0,83,0.00,,,0.00,0.000000,,2013-02-27 12:33:00,
2013-02-27 04:42:00,42.0,37.0,-100.00,South,186,3.0,4.0,83,0.00,,,0.00,0.000000,,2013-02-27 12:42:00,
2013-02-27 04:52:00,42.0,37.0,-100.00,South,186,3.0,4.0,83,0.00,,,0.00,0.000000,,2013-02-27 12:52:00,
2013-02-27 05:02:00,42.0,37.0,-100.00,South,186,3.0,4.0,83,0.00,,,0.00,0.000000,,2013-02-27 13:02:00,
2013-02-27 05:11:00,42.0,37.0,-100.00,South,186,3.0,4.0,83,0.00,,,0.00,0.000000,,2013-02-27 13:11:00,
2013-02-27 05:32:00,41.0,38.0,-100.00,SSE,168,2.0,4.0,88,0.00,,,0.00,0.000000,,2013-02-27 13:32:00,
2013-02-27 05:42:00,41.0,38.0,-100.00,SSE,168,2.0,4.0,88,0.00,,,0.00,0.000000,,2013-02-27 13:42:00,
2013-02-27 05:52:00,41.0,38.0,-100.00,SSE,168,2.0,4.0,88,0.00,,,0.00,0.000000,,2013-02-27 13:52:00,
2013-02-27 06:02:00,41.0,38.0,-100.00,SSE,168,2.0,4.0,88,0.00,,,0.00,0.000000,,2013-02-27 14:02:00,
2013-02-27 06:11:00,41.0,38.0,-100.00,SSE,168,2.0,4.0,88,0.00,,,0.00,0.000000,,2013-02-27 14:11:00,
2013-02-27 06:42:00,40.0,37.0,-100.00,SE,136,2.0,4.0,89,0.00,,,0.00,0.000000,,2013-02-27 14:42:00,
2013-02-27 06:52:00,40.0,37.0,-100.00,SE,136,2.0,4.0,89,0.00,,,0.00,0.000000,,2013-02-27 14:52:00,
2013-02-27 07:02:00,40.0,37.0,-100.00,SE,136,2.0,4.0,89,0.00,,,0.00,0.000000,,2013-02-27 15:02:00,
2013-02-27 07:12:00,40.0,37.0,-100.00,SE,136,2.0,4.0,89,0.00,,,0.00,0.000000,,2013-02-27 15:12:00,
2013-02-27 07:32:00,41.0,37.0,-100.00,South,179,3.0,5.0,87,0.00,,,0.00,0.000000,,2013-02-27 15:32:00,
2013-02-27 07:42:00,41.0,37.0,-100.00,South,179,3.0,5.0,87,0.00,,,0.00,0.000000,,2013-02-27 15:42:00,
2013-02-27 07:52:00,41.0,37.0,-100.00,South,179,3.0,5.0,87,0.00,,,0.00,0.000000,,2013-02-27 15:52:00,
2013-02-27 08:01:00,41.0,37.0,-100.00,South,179,3.0,5.0,87,0.00,,,0.00,0.000000,,2013-02-27 16:01:00,
2013-02-27 08:11:00,41.0,37.0,-100.00,South,179,3.0,5.0,87,0.00,,,0.00,0.000000,,2013-02-27 16:11:00,
2013-02-27 08:32:00,42.0,38.0,-100.00,SE,134,2.0,4.0,85,0.00,,,0.00,26.000000,,2013-02-27 16:32:00,
2013-02-27 08:42:00,42.0,38.0,-100.00,SE,134,2.0,4.0,85,0.00,,,0.00,26.000000,,2013-02-27 16:42:00,
2013-02-27 08:52:00,42.0,38.0,-100.00,SE,134,2.0,4.0,85,0.00,,,0.00,26.000000,,2013-02-27 16:52:00,
2013-02-27 09:01:00,42.0,38.0,-100.00,SE,134,2.0,4.0,85,0.00,,,0.00,26.000000,,2013-02-27 17:01:00,
2013-02-27 09:11:00,42.0,38.0,-100.00,SE,134,2.0,4.0,85,0.00,,,0.00,26.000000,,2013-02-27 17:11:00,
2013-02-27 09:32:00,43.0,38.0,-100.00,SSE,159,2.0,4.0,81,0.00,,,0.00,91.000000,,2013-02-27 17:32:00,
2013-02-27 09:42:00,43.0,38.0,-100.00,SSE,159,2.0,4.0,81,0.00,,,0.00,91.000000,,2013-02-27 17:42:00,
2013-02-27 09:52:00,43.0,38.0,-100.00,SSE,159,2.0,4.0,81,0.00,,,0.00,91.000000,,2013-02-27 17:52:00,
2013-02-27 10:01:00,43.0,38.0,-100.00,SSE,159,2.0,4.0,81,0.00,,,0.00,91.000000,,2013-02-27 18:01:00,
2013-02-27 10:11:00,43.0,38.0,-100.00,SSE,159,2.0,4.0,81,0.00,,,0.00,91.000000,,2013-02-27 18:11:00,
2013-02-27 10:32:00,46.0,37.0,-100.00,South,174,3.0,4.0,71,0.00,,,0.00,199.000000,,2013-02-27 18:32:00,
2013-02-27 10:42:00,46.0,37.0,-100.00,South,174,3.0,4.0,71,0.00,,,0.00,199.000000,,2013-02-27 18:42:00,
2013-02-27 10:52:00,46.0,37.0,-100.00,South,174,3.0,4.0,71,0.00,,,0.00,199.000000,,2013-02-27 18:52:00,
2013-02-27 11:01:00,46.0,37.0,-100.00,South,174,3.0,4.0,71,0.00,,,0.00,199.000000,,2013-02-27 19:01:00,
2013-02-27 11:11:00,46.0,37.0,-100.00,South,174,3.0,4.0,71,0.00,,,0.00,199.000000,,2013-02-27 19:11:00,
2013-02-27 11:32:00,51.0,41.0,-100.00,SW,220,3.0,5.0,68,0.00,,,0.00,285.000000,,2013-02-27 19:32:00,
2013-02-27 11:42:00,51.0,41.0,-100.00,SW,220,3.0,5.0,68,0.00,,,0.00,285.000000,,2013-02-27 19:42:00,
2013-02-27 11:52:00,51.0,41.0,-100.00,SW,220,3.0,5.0,68,0.00,,,0.00,285.000000,,2013-02-27 19:52:00,
2013-02-27 12:01:00,51.0,41.0,-100.00,SW,220,3.0,5.0,68,0.00,,,0.00,285.000000,,2013-02-27 20:01:00,
2013-02-27 12:11:00,51.0,41.0,-100.00,SW,220,3.0,5.0,68,0.00,,,0.00,285.000000,,2013-02-27 20:11:00,
2013-02-27 12:32:00,54.0,41.0,-100.00,SSW,210,6.0,10.0,61,0.00,,,-99.99,524.000000,,2013-02-27 20:32:00,
2013-02-27 12:42:00,54.0,41.0,-100.00,SSW,210,6.0,10.0,61,0.00,,,-99.99,524.000000,,2013-02-27 20:42:00,
2013-02-27 12:52:00,54.0,41.0,-100.00,SSW,210,6.0,10.0,61,0.00,,,-99.99,524.000000,,2013-02-27 20:52:00,
2013-02-27 13:01:00,54.0,41.0,-100.00,SSW,210,6.0,10.0,61,0.00,,,-99.99,524.000000,,2013-02-27 21:01:00,
2013-02-27 13:11:00,54.0,41.0,-100.00,SSW,210,6.0,10.0,61,0.00,,,-99.99,524.000000,,2013-02-27 21:11:00,
2013-02-27 13:42:00,53.0,39.0,-100.00,SW,227,3.0,9.0,60,0.00,,,-99.99,362.000000,,2013-02-27 21:42:00,
2013-02-27 13:52:00,53.0,39.0,-100.00,SW,227,3.0,9.0,60,0.00,,,-99.99,362.000000,,2013-02-27 21:52:00,
2013-02-27 14:01:00,53.0,39.0,-100.00,SW,227,3.0,9.0,60,0.00,,,-99.99,362.000000,,2013-02-27 22:01:00,
2013-02-27 14:11:00,53.0,39.0,-100.00,SW,227,3.0,9.0,60,0.00,,,-99.99,362.000000,,2013-02-27 22:11:00,
2013-02-27 14:42:00,52.0,43.0,-100.00,SSW,210,3.0,6.0,71,0.00,,,0.00,155.000000,,2013-02-27 22:42:00,
2013-02-27 14:52:00,52.0,43.0,-100.00,SSW,210,3.0,6.0,71,0.00,,,0.00,155.000000,,2013-02-27 22:52:00,
2013-02-27 15:01:00,52.0,43.0,-100.00,SSW,210,3.0,6.0,71,0.00,,,0.00,155.000000,,2013-02-27 23:01:00,
2013-02-27 15:11:00,52.0,43.0,-100.00,SSW,210,3.0,6.0,71,0.00,,,0.00,155.000000,,2013-02-27 23:11:00,
2013-02-27 15:32:00,51.0,47.0,-100.00,SSW,207,5.0,8.0,85,0.00,,,0.00,80.000000,,2013-02-27 23:32:00,
2013-02-27 15:42:00,51.0,47.0,-100.00,SSW,207,5.0,8.0,85,0.00,,,0.00,80.000000,,2013-02-27 23:42:00,
2013-02-27 15:53:00,51.0,47.0,-100.00,SSW,207,5.0,8.0,85,0.00,,,0.00,80.000000,,2013-02-27 23:53:00,
2013-02-27 16:01:00,51.0,47.0,-100.00,SSW,207,5.0,8.0,85,0.00,,,0.00,80.000000,,2013-02-28 00:01:00,
2013-02-27 16:11:00,51.0,47.0,-100.00,SSW,207,5.0,8.0,85,0.00,,,0.00,80.000000,,2013-02-28 00:11:00,
2013-02-27 16:32:00,50.0,48.0,-100.00,SSW,207,4.0,7.0,93,0.04,,,0.04,43.000000,,2013-02-28 00:32:00,
2013-02-27 16:42:00,50.0,48.0,-100.00,SSW,207,4.0,7.0,93,0.04,,,0.04,43.000000,,2013-02-28 00:42:00,
2013-02-27 16:52:00,50.0,48.0,-100.00,SSW,207,4.0,7.0,93,0.04,,,0.04,43.000000,,2013-02-28 00:52:00,
2013-02-27 17:01:00,50.0,48.0,-100.00,SSW,207,4.0,7.0,93,0.04,,,0.04,43.000000,,2013-02-28 01:01:00,
2013-02-27 17:11:00,50.0,48.0,-100.00,SSW,207,4.0,7.0,93,0.04,,,0.04,43.000000,,2013-02-28 01:11:00,
2013-02-27 17:32:00,50.0,49.0,-100.00,South,184,3.0,6.0,95,0.09,,,0.13,35.000000,,2013-02-28 01:32:00,
2013-02-27 17:42:00,50.0,49.0,-100.00,South,184,3.0,6.0,95,0.09,,,0.13,35.000000,,2013-02-28 01:42:00,
2013-02-27 17:52:00,50.0,49.0,-100.00,South,184,3.0,6.0,95,0.09,,,0.13,35.000000,,2013-02-28 01:52:00,
2013-02-27 18:01:00,50.0,49.0,-100.00,South,184,3.0,6.0,95,0.09,,,0.13,35.000000,,2013-02-28 02:01:00,
2013-02-27 18:11:00,50.0,49.0,-100.00,South,184,3.0,6.0,95,0.09,,,0.13,35.000000,,2013-02-28 02:11:00,
2013-02-27 19:01:00,49.0,48.0,-100.00,South,179,3.0,5.0,96,0.04,,,0.17,16.000000,,2013-02-28 03:01:00,
2013-02-27 19:11:00,49.0,48.0,-100.00,South,179,3.0,5.0,96,0.04,,,0.17,16.000000,,2013-02-28 03:11:00,
2013-02-27 19:32:00,49.0,48.0,-100.00,South,180,2.0,4.0,96,0.02,,,0.19,0.000000,,2013-02-28 03:32:00,
2013-02-27 19:42:00,49.0,48.0,-100.00,South,180,2.0,4.0,96,0.02,,,0.19,0.000000,,2013-02-28 03:42:00,
2013-02-27 19:52:00,49.0,48.0,-100.00,South,180,2.0,4.0,96,0.02,,,0.19,0.000000,,2013-02-28 03:52:00,
2013-02-27 20:01:00,49.0,48.0,-100.00,South,180,2.0,4.0,96,0.02,,,0.19,0.000000,,2013-02-28 04:01:00,
2013-02-27 20:11:00,49.0,48.0,-100.00,South,180,2.0,4.0,96,0.02,,,0.19,0.000000,,2013-02-28 04:11:00,
2013-02-27 20:32:00,49.0,48.0,-100.00,South,186,3.0,5.0,96,0.01,,,0.20,0.000000,,2013-02-28 04:32:00,
2013-02-27 20:42:00,49.0,48.0,-100.00,South,186,3.0,5.0,96,0.01,,,0.20,0.000000,,2013-02-28 04:42:00,
2013-02-27 20:52:00,49.0,48.0,-100.00,South,186,3.0,5.0,96,0.01,,,0.20,0.000000,,2013-02-28 04:52:00,
2013-02-27 21:01:00,49.0,48.0,-100.00,South,186,3.0,5.0,96,0.01,,,0.20,0.000000,,2013-02-28 05:01:00,
2013-02-27 21:11:00,49.0,48.0,-100.00,South,186,3.0,5.0,96,0.01,,,0.20,0.000000,,2013-02-28 05:11:00,
2013-02-27 21:32:00,50.0,49.0,-100.00,South,190,6.0,8.0,95,0.01,,,0.21,0.000000,,2013-02-28 05:32:00,
2013-02-27 21:42:00,50.0,49.0,-100.00,South,190,6.0,8.0,95,0.01,,,0.21,0.000000,,2013-02-28 05:42:00,
2013-02-27 21:52:00,50.0,49.0,-100.00,South,190,6.0,8.0,95,0.01,,,0.21,0.000000,,2013-02-28 05:52:00,
2013-02-27 22:01:00,50.0,49.0,-100.00,South,190,6.0,8.0,95,0.01,,,0.21,0.000000,,2013-02-28 06:01:00,
2013-02-27 22:11:00,50.0,49.0,-100.00,South,190,6.0,8.0,95,0.01,,,0.21,0.000000,,2013-02-28 06:11:00,
2013-02-27 22:32:00,50.0,48.0,-100.00,SSW,197,5.0,11.0,93,0.00,,,0.21,0.000000,,2013-02-28 06:32:00,
2013-02-27 22:42:00,50.0,48.0,-100.00,SSW,197,5.0,11.0,93,0.00,,,0.21,0.000000,,2013-02-28 06:42:00,
2013-02-27 22:52:00,50.0,48.0,-100.00,SSW,197,5.0,11.0,93,0.00,,,0.21,0.000000,,2013-02-28 06:52:00,
2013-02-27 23:01:00,50.0,48.0,-100.00,SSW,197,5.0,11.0,93,0.00,,,0.21,0.000000,,2013-02-28 07:01:00,
2013-02-27 23:11:00,50.0,48.0,-100.00,SSW,197,5.0,11.0,93,0.00,,,0.21,0.000000,,2013-02-28 07:11:00,
2013-02-27 23:32:00,50.0,48.0,-100.00,SSW,198,7.0,12.0,93,0.00,,,0.21,0.000000,,2013-02-28 07:32:00,
2013-02-27 23:42:00,50.0,48.0,-100.00,SSW,198,7.0,12.0,93,0.00,,,0.21,0.000000,,2013-02-28 07:42:00,
2013-02-27 23:52:00,50.0,48.0,-100.00,SSW,198,7.0,12.0,93,0.00,,,0.21,0.000000,,2013-02-28 07:52:00,